CRQ211 CYVO-CYUL

Flight info

Callsign CRQ211
Flight time 0h 50m
Altitude 25000
Route DCT TAGET DCT IKMOL LFLER7
Aircraft DH8C/M-SDFGR/S

Departure

Time 2026-04-24 00:14
Airport Val-d'Or Airport (CYVO)

Arrival

Time 2026-04-24 01:04
Airport Montreal / Pierre Elliott Trudeau International Airport (CYUL)
Time Latitude Longitude Altitude Speed Heading
2026-04-23 23:35 48.05307 -77.78668 1105 ft 0 kts 37°
2026-04-24 00:11 48.05307 -77.78667 1099 ft 2 kts 37°
2026-04-24 00:11 48.05334 -77.78597 1104 ft 9 kts 146°
2026-04-24 00:12 48.05292 -77.78547 1104 ft 8 kts 92°
2026-04-24 00:12 48.05308 -77.78451 1105 ft 11 kts 76°
2026-04-24 00:12 48.05329 -77.78321 1101 ft 15 kts 56°
2026-04-24 00:12 48.05428 -77.78319 1100 ft 16 kts 348°
2026-04-24 00:13 48.05533 -77.78350 1103 ft 5 kts
2026-04-24 00:13 48.05513 -77.78322 1102 ft 9 kts 169°
2026-04-24 00:13 48.05168 -77.78222 1103 ft 101 kts 169°
2026-04-24 00:13 48.04246 -77.77980 1195 ft 156 kts 173°
2026-04-24 00:14 48.03098 -77.77731 1598 ft 176 kts 167°
2026-04-24 00:14 48.01926 -77.77313 2391 ft 176 kts 157°
2026-04-24 00:14 48.00841 -77.76504 3067 ft 179 kts 147°
2026-04-24 00:14 47.99649 -77.75618 3301 ft 207 kts 156°
2026-04-24 00:15 47.98220 -77.74942 3669 ft 218 kts 162°
2026-04-24 00:15 47.96719 -77.74454 4116 ft 222 kts 168°
2026-04-24 00:15 47.95272 -77.73833 4787 ft 215 kts 150°
2026-04-24 00:15 47.93930 -77.72676 5041 ft 231 kts 146°
2026-04-24 00:16 47.92513 -77.71549 5489 ft 234 kts 150°
2026-04-24 00:16 47.91049 -77.70428 5949 ft 237 kts 147°
2026-04-24 00:16 47.89642 -77.69155 6407 ft 239 kts 141°
2026-04-24 00:16 47.88304 -77.67674 6846 ft 243 kts 138°
2026-04-24 00:17 47.86894 -77.66215 7243 ft 251 kts 147°
2026-04-24 00:17 47.85220 -77.65376 7606 ft 259 kts 179°
2026-04-24 00:17 47.83443 -77.65658 8097 ft 257 kts 185°
2026-04-24 00:17 47.81636 -77.65501 8553 ft 264 kts 172°
2026-04-24 00:18 47.79884 -77.64611 9033 ft 267 kts 149°
2026-04-24 00:18 47.78434 -77.62892 9533 ft 267 kts 129°
2026-04-24 00:18 47.77222 -77.60818 10033 ft 269 kts 125°
2026-04-24 00:18 47.76028 -77.58661 10496 ft 273 kts 124°
2026-04-24 00:19 47.74814 -77.56455 10969 ft 276 kts 124°
2026-04-24 00:19 47.73599 -77.54238 11385 ft 282 kts 124°
2026-04-24 00:19 47.72340 -77.51936 11790 ft 288 kts 124°
2026-04-24 00:19 47.71067 -77.49609 12192 ft 293 kts 124°
2026-04-24 00:20 47.69787 -77.47259 12617 ft 297 kts 124°
2026-04-24 00:20 47.68489 -77.44869 13043 ft 300 kts 124°
2026-04-24 00:20 47.67166 -77.42426 13481 ft 305 kts 124°
2026-04-24 00:20 47.65836 -77.39964 13907 ft 308 kts 124°
2026-04-24 00:21 47.64479 -77.37450 14303 ft 311 kts 124°
2026-04-24 00:21 47.63129 -77.34942 14691 ft 314 kts 124°
2026-04-24 00:21 47.61773 -77.32425 15086 ft 316 kts 124°
2026-04-24 00:21 47.60378 -77.29841 15489 ft 319 kts 124°
2026-04-24 00:22 47.58996 -77.27280 15893 ft 322 kts 124°
2026-04-24 00:22 47.57584 -77.24666 16308 ft 324 kts 123°
2026-04-24 00:22 47.56179 -77.22064 16721 ft 326 kts 124°
2026-04-24 00:22 47.54748 -77.19415 17141 ft 329 kts 123°
2026-04-24 00:23 47.53331 -77.16790 17566 ft 331 kts 123°
2026-04-24 00:23 47.51874 -77.14096 17993 ft 333 kts 123°
2026-04-24 00:23 47.50433 -77.11432 18425 ft 335 kts 123°
2026-04-24 00:23 47.48977 -77.08742 18801 ft 338 kts 123°
2026-04-24 00:24 47.47492 -77.06002 19174 ft 340 kts 123°
2026-04-24 00:24 47.46020 -77.03285 19549 ft 342 kts 123°
2026-04-24 00:24 47.44515 -77.00508 19942 ft 345 kts 123°
2026-04-24 00:24 47.43011 -76.97735 20329 ft 347 kts 123°
2026-04-24 00:25 47.41510 -76.94968 20721 ft 349 kts 123°
2026-04-24 00:25 47.39980 -76.92149 21118 ft 352 kts 123°
2026-04-24 00:25 47.38453 -76.89337 21514 ft 354 kts 123°
2026-04-24 00:25 47.36899 -76.86474 21924 ft 357 kts 122°
2026-04-24 00:26 47.35352 -76.83627 22340 ft 359 kts 122°
2026-04-24 00:26 47.33771 -76.80717 22758 ft 362 kts 122°
2026-04-24 00:26 47.32208 -76.77843 23176 ft 364 kts 122°
2026-04-24 00:26 47.30602 -76.74892 23613 ft 367 kts 122°
2026-04-24 00:27 47.29014 -76.71974 23980 ft 369 kts 122°
2026-04-24 00:27 47.27396 -76.68999 24344 ft 371 kts 122°
2026-04-24 00:27 47.25785 -76.66037 24708 ft 373 kts 122°
2026-04-24 00:27 47.24155 -76.63031 24939 ft 380 kts 122°
2026-04-24 00:28 47.22486 -76.59941 25004 ft 390 kts 122°
2026-04-24 00:28 47.20789 -76.56795 25018 ft 399 kts 122°
2026-04-24 00:28 47.19037 -76.53541 25024 ft 407 kts 122°
2026-04-24 00:28 47.17308 -76.50242 25026 ft 411 kts 121°
2026-04-24 00:29 47.15584 -76.46882 25026 ft 412 kts 121°
2026-04-24 00:29 47.13866 -76.43514 25022 ft 412 kts 121°
2026-04-24 00:29 47.12130 -76.40102 25011 ft 412 kts 120°
2026-04-24 00:29 47.10423 -76.36740 25010 ft 413 kts 120°
2026-04-24 00:30 47.08715 -76.33372 25000 ft 413 kts 120°
2026-04-24 00:30 47.06996 -76.29983 25000 ft 413 kts 120°
2026-04-24 00:30 47.05284 -76.26600 24995 ft 413 kts 120°
2026-04-24 00:30 47.03579 -76.23232 24991 ft 413 kts 120°
2026-04-24 00:31 47.01856 -76.19822 24983 ft 414 kts 120°
2026-04-24 00:31 47.00166 -76.16473 24984 ft 414 kts 120°
2026-04-24 00:31 46.98439 -76.13047 24980 ft 414 kts 120°
2026-04-24 00:31 46.96748 -76.09688 24980 ft 414 kts 120°
2026-04-24 00:32 46.95025 -76.06265 24980 ft 414 kts 120°
2026-04-24 00:32 46.93905 -76.04039 24975 ft 414 kts 120°
2026-04-24 00:32 46.91626 -75.99496 24974 ft 414 kts 120°
2026-04-24 00:32 46.90493 -75.97238 24974 ft 415 kts 120°
2026-04-24 00:33 46.88228 -75.92713 24974 ft 415 kts 120°
2026-04-24 00:33 46.87073 -75.90403 24967 ft 415 kts 120°
2026-04-24 00:33 46.85392 -75.87039 24963 ft 415 kts 120°
2026-04-24 00:33 46.83693 -75.83633 24967 ft 415 kts 119°
2026-04-24 00:34 46.81988 -75.80209 24966 ft 415 kts 119°
2026-04-24 00:34 46.80297 -75.76808 24964 ft 415 kts 119°
2026-04-24 00:34 46.78604 -75.73401 24962 ft 415 kts 119°
2026-04-24 00:34 46.76919 -75.70004 24960 ft 416 kts 119°
2026-04-24 00:35 46.75221 -75.66583 24960 ft 415 kts 119°
2026-04-24 00:35 46.73513 -75.63137 24956 ft 416 kts 119°
2026-04-24 00:35 46.71840 -75.59737 24956 ft 416 kts 119°
2026-04-24 00:35 46.70157 -75.56312 24957 ft 416 kts 119°
2026-04-24 00:36 46.68475 -75.52901 24951 ft 416 kts 119°
2026-04-24 00:36 46.66756 -75.49489 24957 ft 418 kts 122°
2026-04-24 00:36 46.64915 -75.46230 24956 ft 420 kts 125°
2026-04-24 00:36 46.62988 -75.42975 24952 ft 421 kts 126°
2026-04-24 00:37 46.61079 -75.39783 24773 ft 421 kts 126°
2026-04-24 00:37 46.59147 -75.36568 24505 ft 419 kts 126°
2026-04-24 00:37 46.57265 -75.33431 24220 ft 415 kts 126°
2026-04-24 00:37 46.55361 -75.30256 23916 ft 413 kts 126°
2026-04-24 00:38 46.53490 -75.27129 23631 ft 411 kts 126°
2026-04-24 00:38 46.51614 -75.23990 23289 ft 409 kts 126°
2026-04-24 00:38 46.49771 -75.20899 22944 ft 407 kts 126°
2026-04-24 00:38 46.47909 -75.17775 22599 ft 405 kts 126°
2026-04-24 00:39 46.46093 -75.14722 22260 ft 403 kts 126°
2026-04-24 00:39 46.44255 -75.11626 21917 ft 401 kts 126°
2026-04-24 00:39 46.42456 -75.08592 21591 ft 399 kts 126°
2026-04-24 00:39 46.40637 -75.05521 21257 ft 398 kts 126°
2026-04-24 00:40 46.38852 -75.02506 20931 ft 396 kts 126°
2026-04-24 00:40 46.37028 -74.99536 20614 ft 395 kts 128°
2026-04-24 00:40 46.35147 -74.96615 20296 ft 394 kts 129°
2026-04-24 00:40 46.33278 -74.93752 19982 ft 393 kts 129°
2026-04-24 00:41 46.31371 -74.90898 19648 ft 392 kts 131°
2026-04-24 00:41 46.29464 -74.88122 19294 ft 389 kts 131°
2026-04-24 00:41 46.27553 -74.85344 18951 ft 385 kts 131°
2026-04-24 00:41 46.25682 -74.82612 18598 ft 382 kts 131°
2026-04-24 00:42 46.23806 -74.79935 18234 ft 380 kts 133°
2026-04-24 00:42 46.21905 -74.77286 17825 ft 377 kts 133°
2026-04-24 00:42 46.20030 -74.74679 17437 ft 375 kts 133°
2026-04-24 00:42 46.18145 -74.72056 17040 ft 372 kts 133°
2026-04-24 00:43 46.16308 -74.69493 16656 ft 369 kts 133°
2026-04-24 00:43 46.14464 -74.66912 16271 ft 366 kts 133°
2026-04-24 00:43 46.12646 -74.64371 15895 ft 364 kts 134°
2026-04-24 00:43 46.10753 -74.61998 15520 ft 362 kts 140°
2026-04-24 00:44 46.08759 -74.59824 15153 ft 358 kts 144°
2026-04-24 00:44 46.06694 -74.57858 14785 ft 355 kts 149°
2026-04-24 00:44 46.04579 -74.55990 14424 ft 353 kts 149°
2026-04-24 00:44 46.02499 -74.54182 14067 ft 349 kts 150°
2026-04-24 00:45 46.00415 -74.52377 13688 ft 345 kts 150°
2026-04-24 00:45 45.98378 -74.50616 13296 ft 342 kts 150°
2026-04-24 00:45 45.96334 -74.48857 12892 ft 339 kts 150°
2026-04-24 00:45 45.94348 -74.47160 12586 ft 332 kts 150°
2026-04-24 00:46 45.92373 -74.45481 12315 ft 328 kts 149°
2026-04-24 00:46 45.90400 -74.43809 12057 ft 327 kts 149°
2026-04-24 00:46 45.88441 -74.42161 11790 ft 323 kts 149°
2026-04-24 00:46 45.86505 -74.40540 11532 ft 318 kts 149°
2026-04-24 00:47 45.84624 -74.38972 11269 ft 314 kts 149°
2026-04-24 00:47 45.82718 -74.37461 11004 ft 310 kts 154°
2026-04-24 00:47 45.80776 -74.36164 10745 ft 305 kts 156°
2026-04-24 00:47 45.78866 -74.34948 10509 ft 302 kts 156°
2026-04-24 00:48 45.76948 -74.33743 10249 ft 298 kts 156°
2026-04-24 00:48 45.75050 -74.32561 9981 ft 295 kts 156°
2026-04-24 00:48 45.73171 -74.31401 9565 ft 292 kts 156°
2026-04-24 00:48 45.71308 -74.30252 9137 ft 289 kts 156°
2026-04-24 00:49 45.69497 -74.29136 8718 ft 285 kts 156°
2026-04-24 00:49 45.67678 -74.28016 8311 ft 281 kts 156°
2026-04-24 00:49 45.65888 -74.26909 7893 ft 278 kts 156°
2026-04-24 00:49 45.64141 -74.25825 7488 ft 274 kts 156°
2026-04-24 00:50 45.62394 -74.24744 7079 ft 269 kts 156°
2026-04-24 00:50 45.60700 -74.23693 6687 ft 265 kts 156°
2026-04-24 00:50 45.59012 -74.22646 6283 ft 261 kts 156°
2026-04-24 00:50 45.57366 -74.21618 5860 ft 258 kts 156°
2026-04-24 00:51 45.55720 -74.20594 5430 ft 255 kts 156°
2026-04-24 00:51 45.54275 -74.19703 5057 ft 252 kts 156°
2026-04-24 00:51 45.52627 -74.18694 4615 ft 248 kts 156°
2026-04-24 00:51 45.51054 -74.17729 4176 ft 246 kts 156°
2026-04-24 00:52 45.49522 -74.16803 4004 ft 234 kts 156°
2026-04-24 00:52 45.48056 -74.15911 3973 ft 222 kts 155°
2026-04-24 00:52 45.46667 -74.15055 3963 ft 215 kts 155°
2026-04-24 00:52 45.45310 -74.14217 3961 ft 213 kts 155°
2026-04-24 00:53 45.43945 -74.13368 3966 ft 213 kts 155°
2026-04-24 00:53 45.42594 -74.12529 3968 ft 212 kts 155°
2026-04-24 00:53 45.41232 -74.11682 3971 ft 213 kts 155°
2026-04-24 00:53 45.39881 -74.10842 3975 ft 213 kts 155°
2026-04-24 00:54 45.38532 -74.10004 3973 ft 212 kts 155°
2026-04-24 00:54 45.37177 -74.09165 3981 ft 213 kts 155°
2026-04-24 00:54 45.35823 -74.08331 3981 ft 213 kts 156°
2026-04-24 00:54 45.34376 -74.07895 3968 ft 213 kts 186°
2026-04-24 00:55 45.33019 -74.08612 3831 ft 215 kts 218°
2026-04-24 00:55 45.31834 -74.09986 3546 ft 223 kts 224°
2026-04-24 00:55 45.30563 -74.11301 3269 ft 228 kts 207°
2026-04-24 00:55 45.29076 -74.12014 3166 ft 222 kts 189°
2026-04-24 00:56 45.27546 -74.11963 2881 ft 226 kts 165°
2026-04-24 00:56 45.26162 -74.10948 2750 ft 218 kts 139°
2026-04-24 00:56 45.25208 -74.09349 2717 ft 206 kts 113°
2026-04-24 00:56 45.24772 -74.07555 2929 ft 187 kts 94°
2026-04-24 00:57 45.24559 -74.05732 2881 ft 189 kts 92°
2026-04-24 00:57 45.24599 -74.03897 2948 ft 178 kts 70°
2026-04-24 00:57 45.25485 -74.00717 3076 ft 173 kts 54°
2026-04-24 00:58 45.26145 -73.99312 3171 ft 173 kts 47°
2026-04-24 00:58 45.26957 -73.98021 3165 ft 183 kts 41°
2026-04-24 00:58 45.27881 -73.96731 3090 ft 191 kts 40°
2026-04-24 00:58 45.28875 -73.95452 3035 ft 194 kts 38°
2026-04-24 00:59 45.29879 -73.94160 3015 ft 193 kts 38°
2026-04-24 00:59 45.30561 -73.93328 2941 ft 195 kts 37°
2026-04-24 00:59 45.31965 -73.91694 2676 ft 199 kts 36°
2026-04-24 00:59 45.33033 -73.90477 2555 ft 196 kts 35°
2026-04-24 01:00 45.34095 -73.89278 2389 ft 195 kts 35°
2026-04-24 01:00 45.35159 -73.88088 2307 ft 192 kts 36°
2026-04-24 01:00 45.36164 -73.86879 2237 ft 189 kts 40°
2026-04-24 01:00 45.37143 -73.85557 1876 ft 196 kts 40°
2026-04-24 01:01 45.38088 -73.84234 1735 ft 187 kts 41°
2026-04-24 01:01 45.39003 -73.82986 1556 ft 178 kts 38°
2026-04-24 01:01 45.39882 -73.81849 1466 ft 163 kts 38°
2026-04-24 01:01 45.40703 -73.80782 1316 ft 155 kts 39°
2026-04-24 01:02 45.41213 -73.80120 1278 ft 148 kts 38°
2026-04-24 01:02 45.42209 -73.78806 1067 ft 142 kts 39°
2026-04-24 01:02 45.42910 -73.77894 962 ft 138 kts 39°
2026-04-24 01:02 45.43631 -73.76946 661 ft 141 kts 43°
2026-04-24 01:04 45.46759 -73.72847 110 ft 28 kts 44°
2026-04-24 01:04 45.46898 -73.72657 111 ft 30 kts 43°
2026-04-24 01:04 45.47066 -73.72438 112 ft 35 kts 43°
2026-04-24 01:05 45.47202 -73.72248 110 ft 10 kts 80°
2026-04-24 01:05 45.47166 -73.72161 110 ft 11 kts 134°
2026-04-24 01:05 45.47109 -73.72075 112 ft 13 kts 132°
2026-04-24 01:05 45.47112 -73.72001 111 ft 9 kts 44°
2026-04-24 01:06 45.47161 -73.71938 112 ft 10 kts 42°
2026-04-24 01:06 45.47222 -73.71857 112 ft 17 kts 44°
2026-04-24 01:06 45.47342 -73.71699 109 ft 29 kts 42°
2026-04-24 01:06 45.47389 -73.71587 111 ft 8 kts 138°
2026-04-24 01:07 45.47366 -73.71554 112 ft 0 kts 133°